STARLINK-35824 (66370 NORAD) Tracking and Keplerian Element Data

This shows tracking and keplerian element data for the satellite.

Feedback or suggestion? Click here.




ElementValue
Catalog66370
NameSTARLINK-35824
Epoch Orbit579
Epoch Day354.25003472
Epoch Year2025
RAAN239.2432
Inclination53.1658
Eccentricity0.0001284
Argument of Perigee79.202
Mean Anonmoly274.0216
Mean Motion15.31029789
Decay Rate-1.71E-05
L11 66370U 25254Y 25354.25003472 -.00001710 00000+0 -44349-4 0 9990
L22 66370 53.1658 239.2432 0001284 79.2020 274.0216 15.31029789 5790



Live tracking and technical data element details for STARLINK-35824 (NORAD 66370). STARLINK-35824 can be tracked NOW for your location showing map with azimuth and elevation plus other details from your city location.







IsCatalogInMostPopularTable: catalog: 66370, numindb: 4
Update: records affected: 1



GetName: 66370 STARLINK-35824

Hit Count: updated at: Tue, 10 Feb 2026 02:32:13 GMT